EW0609 Weather Reports


time (UTC)temp
C
wind
direction
speed
KPH
gust
KPH
rain 1hr
cm
rain 24hr
cm
rain mn
cm
humidity
%
barometer
mb
20260903033803 27 155 3.2 14.5 0.00 0.00 0.00 47 1015.3
20260903033301 27 164 3.2 14.5 0.00 0.00 0.00 48 1015.4
20260903032950 27 158 6.4 14.5 0.00 0.00 0.00 48 1015.3
20260903032909 27 169 6.4 14.5 0.00 0.00 0.00 48 1015.4
20260903031803 27 164 4.8 11.3 0.00 0.00 0.00 47 1015.3
20260903031300 27 94 6.4 11.3 0.00 0.00 0.00 47 1015.2
20260903030801 27 111 4.8 14.5 0.00 0.00 0.00 47 1015.2
20260903030452 27 179 6.4 11.3 0.00 0.00 0.00 47 1015.1
20260903030406 27 168 6.4 14.5 0.00 0.00 0.00 47 1015.1
20260903025301 27 99 4.8 17.7 0.00 0.00 0.00 47 1014.9
20260903024801 27 148 6.4 17.7 0.00 0.00 0.00 47 1014.9
20260903024301 27 76 6.4 16.1 0.00 0.00 0.00 47 1014.9
20260903023802 27 110 8.0 14.5 0.00 0.00 0.00 47 1014.8
20260903023301 27 144 3.2 14.5 0.00 0.00 0.00 47 1014.7
20260903022801 27 140 6.4 14.5 0.00 0.00 0.00 47 1014.7
20260903022624 27 172 6.4 11.3 0.00 0.00 0.00 47 1014.7
20260903021801 27 155 6.4 11.3 0.00 0.00 0.00 46 1014.8
20260903021453 27 135 4.8 14.5 0.00 0.00 0.00 46 1014.6
20260903021409 27 149 6.4 14.5 0.00 0.00 0.00 46 1014.7
20260903020453 28 103 4.8 14.5 0.00 0.00 0.00 45 1014.6
20260903020411 27 154 6.4 11.3 0.00 0.00 0.00 46 1014.6
20260903015305 28 142 4.8 14.5 0.00 0.00 0.00 45 1014.6
20260903014803 28 148 6.4 9.7 0.00 0.00 0.00 45 1014.6
20260903014302 28 145 6.4 11.3 0.00 0.00 0.00 44 1014.6
20260903013801 28 168 4.8 11.3 0.00 0.00 0.00 44 1014.7
20260903013301 28 120 3.2 8.0 0.00 0.00 0.00 45 1014.7
20260903013124 28 135 0.0 8.0 0.00 0.00 0.00 44 1014.7
20260903012624 28 173 3.2 9.7 0.00 0.00 0.00 44 1014.9
20260903011801 28 142 6.4 9.7 0.00 0.00 0.00 44 1014.8
20260903011301 28 158 6.4 9.7 0.00 0.00 0.00 44 1014.8
20260903010801 28 179 3.2 11.3 0.00 0.00 0.00 44 1014.8
20260903010301 28 158 1.6 11.3 0.00 0.00 0.00 44 1014.9
20260903005953 28 148 3.2 11.3 0.00 0.00 0.00 44 1014.8
20260903005911 28 144 6.4 9.7 0.00 0.00 0.00 44 1014.9
20260903004802 29 125 4.8 14.5 0.00 0.00 0.00 45 1014.9
20260903004632 29 121 6.4 14.5 0.00 0.00 0.00 45 1014.9
20260903003802 29 133 8.0 16.1 0.00 0.00 0.00 45 1014.9
20260903003302 29 164 8.0 16.1 0.00 0.00 0.00 45 1015.1
20260903003131 30 151 6.4 19.3 0.00 0.00 0.00 44 1014.9
20260903002306 30 155 6.4 19.3 0.00 0.00 0.00 44 1014.9
20260903001802 30 158 6.4 19.3 0.00 0.00 0.00 45 1015.3
20260903001632 30 151 8.0 16.1 0.00 0.00 0.00 44 1015.3
20260903001133 30 173 9.7 17.7 0.00 0.00 0.00 44 1015.3
20260903000303 30 217 6.4 24.1 0.00 0.00 0.00 44 1015.3
20260902235802 30 118 12.9 24.1 0.00 0.00 0.00 42 1015.3
20260902235305 30 162 9.7 22.5 0.00 0.00 0.00 42 1015.2
20260902235122 30 189 8.0 20.9 0.00 0.00 0.00 42 1015.2
20260902234302 31 178 12.9 20.9 0.00 0.00 0.00 41 1015.2
20260902233801 31 175 9.7 25.7 0.00 0.00 0.00 39 1015.2
20260902233301 32 155 9.7 25.7 0.00 0.00 0.00 38 1015.2
20260902233128 32 116 12.9 20.9 0.00 0.00 0.00 36 1015.1
20260902232306 32 206 8.0 24.1 0.00 0.00 0.00 37 1014.8
20260902231802 32 89 11.3 24.1 0.00 0.00 0.00 37 1014.9
20260902231301 32 85 12.9 22.5 0.00 0.00 0.00 38 1014.9
20260902230802 32 104 8.0 22.5 0.00 0.00 0.00 37 1014.9
20260902230301 33 140 12.9 22.5 0.00 0.00 0.00 37 1014.9
20260902225802 33 94 8.0 24.1 0.00 0.00 0.00 37 1014.9
20260902225305 33 128 12.9 27.4 0.00 0.00 0.00 36 1014.9
20260902225125 33 134 11.3 27.4 0.00 0.00 0.00 37 1014.9
20260902224629 33 137 8.0 25.7 0.00 0.00 0.00 35 1014.8
20260902223801 34 133 8.0 27.4 0.00 0.00 0.00 36 1014.9
20260902223303 34 154 14.5 27.4 0.00 0.00 0.00 34 1014.9
20260902222801 34 176 8.0 24.1 0.00 0.00 0.00 34 1014.8
20260902222301 34 216 11.3 24.1 0.00 0.00 0.00 34 1014.9
20260902221804 33 164 8.0 20.9 0.00 0.00 0.00 36 1014.9
20260902221303 33 185 11.3 20.9 0.00 0.00 0.00 36 1015.1
20260902220805 32 147 9.7 19.3 0.00 0.00 0.00 38 1014.9
20260902220303 32 221 8.0 24.1 0.00 0.00 0.00 37 1015.2
20260902215801 32 210 11.3 24.1 0.00 0.00 0.00 36 1015.2
20260902215301 32 207 8.0 24.1 0.00 0.00 0.00 37 1015.2
20260902214806 33 137 12.9 24.1 0.00 0.00 0.00 35 1015.3
20260902214302 33 221 6.4 16.1 0.00 0.00 0.00 36 1015.4
20260902213801 33 203 8.0 20.9 0.00 0.00 0.00 35 1015.4
20260902213301 33 214 11.3 30.6 0.00 0.00 0.00 34 1015.3
20260902212948 35 195 9.7 27.4 0.00 0.00 0.00 37 1015.2
20260902212907 33 252 12.9 30.6 0.00 0.00 0.00 35 1015.3
20260902212124 35 149 6.4 17.7 0.00 0.00 0.00 38 1015.2
20260902211630 34 233 4.8 11.3 0.00 0.00 0.00 37 1015.1
20260902210801 34 159 6.4 11.3 0.00 0.00 0.00 39 1015.1
20260902210302 32 125 4.8 11.3 0.00 0.00 0.00 41 1015.3
20260902205802 32 219 3.2 19.3 0.00 0.00 0.00 45 1015.3
20260902205306 30 285 4.8 35.4 0.00 0.00 0.00 42 1015.4
20260902205130 30 180 14.5 35.4 0.00 0.00 0.00 49 1015.7
20260902204302 31 227 8.0 17.7 0.00 0.00 0.00 46 1015.7
20260902203801 32 234 9.7 22.5 0.00 0.00 0.00 38 1015.6
20260902203459 34 200 12.9 25.7 0.00 0.00 0.00 35 1015.7
20260902203414 33 164 9.7 22.5 0.00 0.00 0.00 36 1015.6
20260902202306 36 219 9.7 25.7 0.00 0.00 0.00 34 1015.8
20260902201801 36 145 12.9 22.5 0.00 0.00 0.00 34 1015.8
20260902201301 36 185 12.9 24.1 0.00 0.00 0.00 36 1015.8
20260902200801 35 238 12.9 24.1 0.00 0.00 0.00 35 1015.9
20260902200635 35 206 9.7 17.7 0.00 0.00 0.00 34 1015.9
20260902195953 34 164 9.7 19.3 0.00 0.00 0.00 37 1016.2
20260902195910 35 157 9.7 19.3 0.00 0.00 0.00 35 1016.1
20260902194802 32 217 0.0 1.6 0.00 0.00 0.00 43 1016.4
20260902194302 31 176 0.0 17.7 0.00 0.00 0.00 47 1016.4
20260902193802 30 248 1.6 19.3 0.00 0.00 0.00 47 1016.5
20260902193301 31 233 8.0 19.3 0.00 0.00 0.00 47 1016.7
20260902192802 32 180 9.7 22.5 0.00 0.00 0.00 40 1016.6
20260902192625 32 188 14.5 22.5 0.00 0.00 0.00 39 1016.7
20260902192024 32 195 9.7 20.9 0.00 0.00 0.00 38 1016.8
20260902191627 33 159 9.7 29.0 0.00 0.00 0.00 38 1016.7
20260902190801 33 168 12.9 29.0 0.00 0.00 0.00 36 1016.6
20260902190301 35 217 6.4 20.9 0.00 0.00 0.00 35 1016.7
20260902190126 35 210 6.4 20.9 0.00 0.00 0.00 37 1016.7
20260902185301 35 248 9.7 20.9 0.00 0.00 0.00 36 1016.8
20260902184802 35 169 9.7 25.7 0.00 0.00 0.00 36 1016.9
20260902184301 35 125 11.3 25.7 0.00 0.00 0.00 34 1017.3
20260902183801 35 149 8.0 20.9 0.00 0.00 0.00 35 1017.2
20260902183302 35 319 6.4 25.7 0.00 0.00 0.00 36 1017.5
20260902182801 35 133 11.3 25.7 0.00 0.00 0.00 35 1017.6
20260902182305 35 206 6.4 20.9 0.00 0.00 0.00 36 1017.6
20260902181801 35 111 11.3 20.9 0.00 0.00 0.00 38 1017.7
20260902181303 34 233 9.7 20.9 0.00 0.00 0.00 36 1018.0
20260902180801 35 197 9.7 20.9 0.00 0.00 0.00 38 1018.1
20260902180301 34 176 8.0 17.7 0.00 0.00 0.00 37 1018.1
20260902175801 34 135 9.7 17.7 0.00 0.00 0.00 39 1018.2
20260902175301 33 227 4.8 16.1 0.00 0.00 0.00 40 1018.2
20260902175011 32 173 9.7 22.5 0.00 0.00 0.00 40 1018.5
20260902174919 32 165 4.8 22.5 0.00 0.00 0.00 40 1018.4
20260902173802 32 168 9.7 22.5 0.00 0.00 0.00 41 1018.5
20260902173303 33 228 12.9 22.5 0.00 0.00 0.00 39 1018.5
20260902172952 33 217 9.7 22.5 0.00 0.00 0.00 40 1018.6
20260902172910 33 196 8.0 22.5 0.00 0.00 0.00 39 1018.6
20260902171802 33 183 8.0 22.5 0.00 0.00 0.00 40 1018.6
20260902171301 33 230 8.0 22.5 0.00 0.00 0.00 41 1018.6
20260902170801 32 216 4.8 19.3 0.00 0.00 0.00 41 1018.6
20260902170300 32 237 11.3 22.5 0.00 0.00 0.00 41 1018.8
20260902165800 32 164 8.0 25.7 0.00 0.00 0.00 41 1018.7
20260902165300 32 195 12.9 25.7 0.00 0.00 0.00 42 1019.0
20260902164800 32 155 6.4 17.7 0.00 0.00 0.00 43 1019.0
20260902164301 31 202 8.0 20.9 0.00 0.00 0.00 45 1019.0
20260902163801 31 240 12.9 20.9 0.00 0.00 0.00 43 1019.1
20260902163302 31 189 6.4 16.1 0.00 0.00 0.00 46 1019.0
20260902162802 31 147 9.7 22.5 0.00 0.00 0.00 44 1019.0
20260902162301 31 199 11.3 22.5 0.00 0.00 0.00 45 1019.1
20260902161802 31 209 9.7 17.7 0.00 0.00 0.00 45 1019.0
20260902161301 30 175 6.4 20.9 0.00 0.00 0.00 47 1019.0
20260902160801 30 223 9.7 20.9 0.00 0.00 0.00 46 1019.1
20260902160301 29 113 6.4 11.3 0.00 0.00 0.00 48 1019.0
20260902155803 28 128 3.2 11.3 0.00 0.00 0.00 49 1019.1
20260902155300 28 171 8.0 9.7 0.00 0.00 0.00 48 1019.1
20260902154759 28 200 6.4 9.7 0.00 0.00 0.00 48 1019.2
20260902154300 28 237 3.2 9.7 0.00 0.00 0.00 50 1019.1
20260902153800 27 127 6.4 9.7 0.00 0.00 0.00 49 1019.2
20260902153302 27 195 6.4 11.3 0.00 0.00 0.00 49 1019.0
20260902152759 27 180 6.4 14.5 0.00 0.00 0.00 49 1018.8
20260902152301 27 189 4.8 14.5 0.00 0.00 0.00 50 1019.0
20260902151801 27 216 4.8 9.7 0.00 0.00 0.00 51 1019.0
20260902151312 27 185 4.8 9.7 0.00 0.00 0.00 50 1019.0
20260902150914 26 237 3.2 8.0 0.00 0.00 0.00 52 1019.1
20260902145802 25 159 3.2 14.5 0.00 0.00 0.00 52 1019.0
20260902145305 25 209 4.8 14.5 0.00 0.00 0.00 53 1019.0
20260902144800 25 144 1.6 8.0 0.00 0.00 0.00 53 1019.1
20260902144301 25 166 4.8 9.7 0.00 0.00 0.00 53 1019.0
20260902144128 25 190 3.2 9.7 0.00 0.00 0.00 53 1018.8
20260902143300 25 175 3.2 11.3 0.00 0.00 0.00 54 1018.7
20260902143124 25 188 8.0 11.3 0.00 0.00 0.00 52 1018.8
20260902142301 26 155 6.4 14.5 0.00 0.00 0.00 52 1018.7
20260902141800 25 199 9.7 17.7 0.00 0.00 0.00 52 1018.7
20260902141302 25 213 8.0 17.7 0.00 0.00 0.00 52 1018.7
20260902140801 25 197 8.0 14.5 0.00 0.00 0.00 53 1018.6
20260902140301 25 228 8.0 14.5 0.00 0.00 0.00 55 1018.6
20260902140129 24 168 8.0 14.5 0.00 0.00 0.00 55 1018.6
20260902135300 24 169 6.4 17.7 0.00 0.00 0.00 55 1018.6
20260902134800 24 210 6.4 20.9 0.00 0.00 0.00 55 1018.6
20260902134301 23 186 6.4 20.9 0.00 0.00 0.00 55 1018.6
20260902133803 23 221 6.4 16.1 0.00 0.00 0.00 56 1018.5
20260902133302 23 166 3.2 16.1 0.00 0.00 0.00 56 1018.5
20260902132800 23 186 6.4 16.1 0.00 0.00 0.00 56 1018.4
20260902132301 23 234 8.0 14.5 0.00 0.00 0.00 57 1018.4
20260902132124 23 190 8.0 14.5 0.00 0.00 0.00 56 1018.2
20260902131302 23 178 6.4 14.5 0.00 0.00 0.00 56 1018.2
20260902130801 23 169 6.4 17.7 0.00 0.00 0.00 56 1018.2
20260902130300 23 190 6.4 17.7 0.00 0.00 0.00 56 1018.1
20260902125801 23 224 6.4 16.1 0.00 0.00 0.00 56 1018.2
20260902125300 23 158 6.4 16.1 0.00 0.00 0.00 56 1018.0
20260902124801 22 169 6.4 16.1 0.00 0.00 0.00 57 1018.0
20260902124300 22 135 6.4 16.1 0.00 0.00 0.00 57 1017.8
20260902123803 22 176 6.4 16.1 0.00 0.00 0.00 57 1017.7
20260902123301 22 190 9.7 16.1 0.00 0.00 0.00 57 1017.8
20260902122800 22 192 8.0 16.1 0.00 0.00 0.00 57 1017.7
20260902122300 22 193 6.4 16.1 0.00 0.00 0.00 57 1017.6
20260902121801 22 238 4.8 9.7 0.00 0.00 0.00 57 1017.6
20260902121301 22 206 4.8 14.5 0.00 0.00 0.00 57 1017.6
20260902120801 22 135 6.4 14.5 0.00 0.00 0.00 56 1017.5
20260902120301 22 189 6.4 14.5 0.00 0.00 0.00 56 1017.4
20260902115801 22 188 6.4 16.1 0.00 0.00 0.00 56 1017.4
20260902115307 23 224 8.0 20.9 0.00 0.00 0.00 55 1017.4
20260902114801 23 189 9.7 22.5 0.00 0.00 0.00 55 1017.4
20260902114623 23 221 9.7 22.5 0.00 0.00 0.00 55 1017.4
20260902113800 23 209 9.7 19.3 0.00 0.00 0.00 55 1017.4
20260902113300 22 186 8.0 17.7 0.00 0.00 0.00 56 1017.4
20260902112800 22 197 6.4 14.5 0.00 0.00 0.00 56 1017.3
20260902112305 22 186 6.4 17.7 0.00 0.00 0.00 56 1017.3
20260902111800 22 149 6.4 17.7 0.00 0.00 0.00 55 1017.3
20260902111301 23 165 6.4 14.5 0.00 0.00 0.00 55 1017.3
20260902110800 23 192 8.0 14.5 0.00 0.00 0.00 55 1017.4
20260902110301 23 292 8.0 16.1 0.00 0.00 0.00 55 1017.3
20260902105801 23 220 8.0 16.1 0.00 0.00 0.00 55 1017.4
20260902105300 23 197 8.0 16.1 0.00 0.00 0.00 55 1017.4
20260902105120 23 202 6.4 16.1 0.00 0.00 0.00 55 1017.5
20260902104300 23 188 6.4 16.1 0.00 0.00 0.00 55 1017.5
20260902103801 22 199 8.0 16.1 0.00 0.00 0.00 55 1017.5
20260902103300 22 165 6.4 16.1 0.00 0.00 0.00 56 1017.5
20260902102801 22 178 6.4 17.7 0.00 0.00 0.00 56 1017.5
20260902102307 22 176 8.0 17.7 0.00 0.00 0.00 55 1017.6
20260902101801 23 175 6.4 17.7 0.00 0.00 0.00 54 1017.7
20260902101625 23 103 3.2 17.7 0.00 0.00 0.00 54 1017.6
20260902100801 23 120 6.4 19.3 0.00 0.00 0.00 54 1017.6
20260902100301 23 173 6.4 19.3 0.00 0.00 0.00 53 1017.6
20260902095802 23 182 8.0 17.7 0.00 0.00 0.00 53 1017.7
20260902095625 23 228 8.0 17.7 0.00 0.00 0.00 53 1017.7
20260902094800 23 220 8.0 16.1 0.00 0.00 0.00 53 1017.7
20260902094300 23 164 8.0 20.9 0.00 0.00 0.00 52 1017.6
20260902093800 23 185 6.4 20.9 0.00 0.00 0.00 52 1017.7
20260902093301 23 123 8.0 19.3 0.00 0.00 0.00 52 1017.7
20260902092759 23 197 8.0 19.3 0.00 0.00 0.00 52 1017.6
20260902092300 23 166 6.4 20.9 0.00 0.00 0.00 52 1017.7
20260902091801 23 176 9.7 20.9 0.00 0.00 0.00 51 1017.7
20260902091300 24 231 8.0 20.9 0.00 0.00 0.00 51 1017.7
20260902090801 24 231 9.7 20.9 0.00 0.00 0.00 51 1017.8
20260902090301 24 240 6.4 19.3 0.00 0.00 0.00 51 1017.7
20260902085800 24 266 6.4 19.3 0.00 0.00 0.00 51 1017.8
20260902085301 24 199 8.0 19.3 0.00 0.00 0.00 52 1018.0
20260902084800 23 219 4.8 11.3 0.00 0.00 0.00 52 1018.0
20260902084301 23 223 3.2 19.3 0.00 0.00 0.00 51 1017.8
20260902083759 23 145 8.0 19.3 0.00 0.00 0.00 51 1018.0
20260902083301 23 180 8.0 17.7 0.00 0.00 0.00 51 1018.0
20260902082801 23 149 6.4 11.3 0.00 0.00 0.00 51 1018.0
20260902082300 23 162 6.4 14.5 0.00 0.00 0.00 52 1018.1
20260902081800 23 152 6.4 14.5 0.00 0.00 0.00 52 1018.0
20260902081300 23 189 6.4 16.1 0.00 0.00 0.00 52 1018.1
20260902080801 23 193 6.4 16.1 0.00 0.00 0.00 52 1018.1
20260902080625 23 154 6.4 16.1 0.00 0.00 0.00 52 1018.2
20260902080126 23 213 8.0 16.1 0.00 0.00 0.00 52 1018.1
20260902075622 23 182 4.8 9.7 0.00 0.00 0.00 51 1018.1
20260902074800 23 159 6.4 16.1 0.00 0.00 0.00 51 1018.1
20260902074625 23 186 9.7 16.1 0.00 0.00 0.00 51 1018.1
20260902073759 23 172 6.4 14.5 0.00 0.00 0.00 51 1018.0
20260902073300 23 158 4.8 16.1 0.00 0.00 0.00 51 1018.1
20260902072800 23 121 6.4 16.1 0.00 0.00 0.00 52 1018.1
20260902072617 23 172 6.4 16.1 0.00 0.00 0.00 52 1018.2
20260902071801 23 162 6.4 14.5 0.00 0.00 0.00 51 1018.2
20260902071300 23 206 4.8 17.7 0.00 0.00 0.00 51 1018.1
20260902070802 23 162 8.0 17.7 0.00 0.00 0.00 51 1018.2
20260902070302 23 234 4.8 11.3 0.00 0.00 0.00 51 1018.2
20260902065800 23 195 6.4 11.3 0.00 0.00 0.00 51 1018.3
20260902065300 23 206 4.8 11.3 0.00 0.00 0.00 52 1018.3
20260902064800 23 161 4.8 11.3 0.00 0.00 0.00 51 1018.2
20260902064628 24 199 4.8 11.3 0.00 0.00 0.00 51 1018.3
20260902063801 24 169 6.4 14.5 0.00 0.00 0.00 51 1018.3
20260902063301 24 164 4.8 14.5 0.00 0.00 0.00 50 1018.1
20260902062800 25 206 4.8 16.1 0.00 0.00 0.00 50 1018.2
20260902062305 25 182 3.2 16.1 0.00 0.00 0.00 50 1018.1
20260902061759 25 154 6.4 14.5 0.00 0.00 0.00 50 1018.0
20260902061616 25 165 4.8 19.3 0.00 0.00 0.00 49 1018.1
20260902061126 25 164 6.4 19.3 0.00 0.00 0.00 50 1018.0
20260902060300 25 147 4.8 11.3 0.00 0.00 0.00 50 1018.1
20260902055801 25 175 4.8 11.3 0.00 0.00 0.00 50 1018.1
20260902055301 25 137 3.2 11.3 0.00 0.00 0.00 50 1018.1
20260902055126 25 178 6.4 11.3 0.00 0.00 0.00 50 1018.1
20260902054300 25 113 3.2 9.7 0.00 0.00 0.00 50 1018.1
20260902053800 25 161 6.4 9.7 0.00 0.00 0.00 50 1018.1
20260902053629 25 147 4.8 11.3 0.00 0.00 0.00 50 1018.1
20260902052802 25 185 3.2 11.3 0.00 0.00 0.00 50 1018.1
20260902052259 25 199 4.8 11.3 0.00 0.00 0.00 49 1018.0
20260902051800 25 172 3.2 9.7 0.00 0.00 0.00 49 1018.1
20260902051301 25 151 3.2 11.3 0.00 0.00 0.00 49 1018.1
20260902050800 25 155 4.8 11.3 0.00 0.00 0.00 49 1018.0
20260902050259 25 200 3.2 11.3 0.00 0.00 0.00 49 1018.1
20260902050024 26 161 4.8 11.3 0.00 0.00 0.00 48 1018.1
20260902045259 26 152 4.8 11.3 0.00 0.00 0.00 48 1018.1
20260902044759 26 197 6.4 11.3 0.00 0.00 0.00 47 1018.0
20260902044638 26 137 4.8 11.3 0.00 0.00 0.00 47 1018.1
20260902043800 26 124 4.8 11.3 0.00 0.00 0.00 47 1018.1
20260902043301 26 131 6.4 11.3 0.00 0.00 0.00 46 1018.1
20260902042802 26 164 4.8 11.3 0.00 0.00 0.00 46 1018.1
20260902042300 26 104 4.8 9.7 0.00 0.00 0.00 46 1018.0
20260902041839 26 176 6.4 11.3 0.00 0.00 0.00 45 1018.0
20260902041306 26 172 4.8 14.5 0.00 0.00 0.00 45 1018.1
20260902040800 27 185 6.4 14.5 0.00 0.00 0.00 45 1018.0
20260902040259 27 176 4.8 14.5 0.00 0.00 0.00 44 1018.1
20260902035800 27 144 4.8 14.5 0.00 0.00 0.00 44 1018.0
20260902035301 27 188 4.8 14.5 0.00 0.00 0.00 44 1017.8
20260902034759 26 104 6.4 14.5 0.00 0.00 0.00 45 1018.0
20260902034259 26 137 3.2 9.7 0.00 0.00 0.00 45 1017.8
20260902034025 27 131 4.8 9.7 0.00 0.00 0.00 45 1017.8